Terminal Aerodrome Forecast
Issued by NWS Twin Cities, MN

Home | Current Version | Previous Version | Text Only | Print | Product List | Glossary On
Versions: 1 2 3 4 5 6 7 8 9 10 11 12 13 14 15 16 17 18
000
FTUS43 KMPX 032323
TAFEAU
TAF
KEAU 032323Z 0400/0424 25008KT P6SM SCT050 BKN250
     FM040300 VRB03KT P6SM SCT070
     FM040800 VRB02KT 3SM BR SKC
     FM041300 14004KT P6SM SKC=

USA.gov is the U.S. government's official web portal to all federal, state and local government web resources and services.